[[{"header":{"parameterUnit":"m.s-1","parameterCategory":1,"la1":30.2991,"la2":30.254,"lo1":-89.0895,"lo2":-89.0444,"dy":0.0017,"dx":0.0017,"nx":28,"ny":28,"refTime":"2025-05-21T21:00:00:Z","depth":0,"parameterNumber":2,"parameterNumberName":"U-component_of_WINDS"},"data":[0,0,0,0,0,0,0,0,0,0,0,0,0,0,0,0,0,0,0,0,0,0,0,0,0,0,0,0,0,0,0,0,0,0,0,0,0,0,0,0,0,0,0,0,0,0,0,0,0,0,0,0,0,0,0,0,0,0,-3.4238,-3.4238,0,-3.4269,-3.427,-3.427,-3.4214,-3.4212,-3.421,-3.4209,-3.4242,-3.4244,-3.4247,0,0,0,0,0,0,0,0,0,0,0,0,0,-3.4132,-3.4134,-3.4238,-3.4238,-3.4239,-3.4269,-3.427,-3.427,-3.4214,-3.4212,-3.421,-3.4208,-3.4241,-3.4244,-3.4247,0,0,0,0,0,0,0,0,0,0,0,0,0,-3.4172,-3.4135,-3.4238,-3.4215,-3.4213,-3.4269,-3.427,-3.427,-3.4215,-3.4212,-3.4209,-3.4207,-3.424,-3.4244,-3.4248,-3.4328,0,0,-3.426,-3.4261,0,0,0,0,0,0,0,0,-3.417,-3.4176,-3.4218,-3.4216,-3.4214,-3.4235,-3.4244,-3.429,-3.4216,-3.4214,-3.4209,-3.4205,-3.4242,-3.4245,-3.4257,-3.433,-3.4331,-3.426,-3.4262,-3.4264,-3.4265,0,0,0,0,0,0,0,-3.4167,-3.4174,-3.425,-3.4218,-3.4216,-3.4203,-3.4206,-3.4253,-3.4243,-3.4214,-3.421,-3.4215,-3.424,-3.4254,-3.4258,-3.4332,-3.426,-3.4263,-3.4266,-3.4267,-3.4474,-3.4477,0,0,0,0,0,0,-3.4167,-3.4172,-3.4249,-3.4251,-3.4185,-3.4207,-3.421,-3.4231,-3.4243,-3.4242,-3.4217,-3.4212,-3.4248,-3.4253,-3.4259,-3.4355,-3.4264,-3.4268,-3.427,-3.4471,-3.4475,-3.4478,0,0,0,0,0,0,-3.4165,-3.4174,-3.4248,-3.4211,-3.4219,-3.4212,-3.4236,-3.4233,-3.4247,-3.4245,-3.4243,-3.4232,-3.4246,-3.4253,-3.4312,-3.4355,-3.427,-3.4273,-3.4467,-3.4472,-3.4476,-3.4547,0,0,0,0,0,0,-3.4162,-3.4174,-3.4204,-3.4212,-3.4221,-3.43,-3.4239,-3.4236,-3.4253,-3.4247,-3.4259,-3.4258,-3.4245,-3.4306,-3.4316,-3.4359,-3.4276,-3.4463,-3.4469,-3.4475,-3.4541,-3.4554,-3.4565,0,0,0,0,0,-3.4158,-3.4222,-3.4206,-3.4215,-3.4258,-3.4302,-3.4308,-3.4291,-3.4257,-3.4288,-3.4287,-3.4258,-3.4349,-3.4313,-3.4323,-3.4368,-3.446,-3.4468,-3.4474,-3.4536,-3.4551,-3.4565,0,0,0,0,0,0,-3.4219,-3.4223,-3.4204,-3.4273,-3.4288,-3.4293,-3.433,-3.4308,-3.4333,-3.4326,-3.4305,-3.4308,-3.4371,-3.4375,-3.4335,-3.4448,-3.4399,-3.4409,-3.4442,-3.4457,-3.4469,-3.4466,-3.4279,0,0,0,0,0,-3.4241,-3.4276,-3.4277,-3.4337,-3.4346,-3.4337,-3.4356,-3.4342,-3.4357,-3.4363,-3.4366,-3.4382,-3.4415,-3.4436,-3.4466,-3.4542,-3.4544,-3.4578,-3.459,-3.46,-3.4608,-3.465,-3.4666,-3.4501,-3.4501,-3.4501,0,0,-3.4285,-3.4292,-3.4315,-3.435,-3.436,-3.4397,-3.4343,-3.4384,-3.4412,-3.4369,-3.4424,-3.4428,-3.4445,-3.4513,-3.4543,-3.4518,-3.4655,-3.4609,-3.4617,-3.462,-3.4659,-3.4675,-3.4689,-3.4506,-3.4505,-3.4504,0,0,-3.4385,-3.4393,-3.4445,-3.4457,-3.4473,-3.4467,-3.448,-3.4489,-3.4489,-3.4545,-3.4514,-3.4547,-3.4603,-3.4617,-3.4631,-3.4739,-3.4713,-3.4749,-3.4811,-3.4852,-3.4865,-3.4877,-3.4916,-3.493,-3.4758,-3.4758,-3.4758,0,-3.4438,-3.4493,-3.4474,-3.4519,-3.4535,-3.4499,-3.4552,-3.4564,-3.4589,-3.4602,-3.4574,-3.4645,-3.4654,-3.4725,-3.4752,-3.4764,-3.4779,-3.4747,-3.4865,-3.4876,-3.4886,-3.4924,-3.4938,-3.4762,-3.4762,-3.4761,-3.4761,0,-3.4558,-3.4597,-3.4637,-3.4662,-3.4684,-3.4732,-3.4722,-3.4746,-3.4731,-3.4728,-3.4786,-3.4796,-3.4827,-3.4843,-3.4829,-3.4913,-3.4898,-3.4868,-3.4819,-3.4907,-3.4941,-3.4955,-3.4768,-3.4767,-3.4765,-3.4764,0,0,-3.4695,-3.4712,-3.4727,-3.4738,-3.4755,-3.4785,-3.4832,-3.4863,-3.4885,-3.4904,-3.4944,-3.4994,-3.4967,-3.4983,-3.497,-3.5006,-3.5092,-3.4972,-3.4972,-3.4994,-3.5187,-3.5209,-3.5226,-3.5076,-3.5079,-3.5081,-3.5186,0,-3.4795,-3.4876,-3.4862,-3.4941,-3.4978,-3.4945,-3.4986,-3.5001,-3.5001,-3.5032,-3.5032,-3.5068,-3.5029,-3.5039,-3.5073,-3.5074,-3.5131,-3.5067,-3.5113,-3.5115,-3.511,-3.5244,-3.5267,-3.5366,-3.5199,-3.5202,-3.5203,0,-3.4922,-3.4946,-3.5029,-3.5041,-3.5056,-3.5094,-3.5122,-3.5152,-3.5169,-3.5167,-3.5186,-3.5167,-3.5216,-3.5166,-3.5234,-3.519,-3.5209,-3.5213,-3.5216,-3.522,-3.5164,-3.5251,-3.5397,-3.5412,-3.5224,-3.5223,-3.5221,0,-3.5014,-3.5068,-3.5125,-3.5136,-3.5152,-3.5179,-3.5187,-3.5201,-3.5222,-3.5247,-3.526,-3.5291,-3.5307,-3.5332,-3.5322,-3.5287,-3.5392,-3.5341,-3.5392,-3.5392,-3.5414,-3.5413,-3.5566,-3.5427,-3.5427,-3.5427,-3.5426,0,-3.5126,-3.5179,-3.5167,-3.5202,-3.526,-3.5244,-3.5302,-3.5306,-3.532,-3.5356,-3.533,-3.5364,-3.5349,-3.5383,-3.5376,-3.5434,-3.5441,-3.5441,-3.5439,-3.5443,-3.5443,-3.5455,-3.5447,-3.5431,-3.543,-3.5429,-3.5428,0,-3.5239,-3.5233,-3.5293,-3.5303,-3.5307,-3.535,-3.5359,-3.5393,-3.5391,-3.5437,-3.5447,-3.5445,-3.5484,-3.5477,-3.5519,-3.5515,-3.5587,-3.5576,-3.5581,-3.5578,-3.5629,-3.5624,-3.5794,-3.5815,-3.5663,-3.5665,-3.5666,0,-3.5311,-3.535,-3.5365,-3.5388,-3.5398,-3.5434,-3.5455,-3.5441,-3.5464,-3.5488,-3.5519,-3.5556,-3.5584,-3.5648,-3.5651,-3.5684,-3.5673,-3.5731,-3.5678,-3.5682,-3.5674,-3.5672,-3.5676,-3.5741,-3.5742,-3.5744,-3.5745,0,-3.5439,-3.5435,-3.5466,-3.5496,-3.5522,-3.5546,-3.5566,-3.5586,-3.5575,-3.5603,-3.5642,-3.5664,-3.5709,-3.5746,-3.5777,-3.5786,-3.5764,-3.5762,-3.5775,-3.578,-3.5781,-3.5782,-3.5609,-3.5758,-3.5756,-3.5755,-3.5755,-3.5754,-3.5533,-3.5568,-3.5584,-3.562,-3.5635,-3.5655,-3.5688,-3.5691,-3.5723,-3.5758,-3.5749,-3.5794,-3.5812,-3.5852,-3.5865,-3.5901,-3.5879,-3.5899,-3.5904,-3.5908,-3.5915,-3.5776,-3.5906,-3.5906,-3.5906,-3.5905,-3.5905,0,-3.5661,-3.567,-3.5703,-3.5734,-3.5763,-3.574,-3.5763,-3.5788,-3.5828,-3.5847,-3.5876,-3.5922,-3.5959,-3.5965,-3.6,-3.6028,-3.6019,-3.6037,-3.6035,-3.6037,-3.5931,-3.5916,-3.6044,-3.6044,-3.6044,-3.6044,-3.6044,-3.6044,-3.573,-3.5787,-3.5785,-3.585,-3.5859,-3.5903,-3.5918,-3.5938,-3.5952,-3.6005,-3.6035,-3.604,-3.6054,-3.609,-3.6123,-3.6124,-3.6138,-3.6161,-3.6158,-3.6059,-3.6045,-3.6031,-3.6017,-3.6164,-3.6164,-3.6261,-3.6262,-3.6262]},{"header":{"parameterUnit":"m.s-1","parameterCategory":1,"la1":30.2991,"la2":30.254,"lo1":-89.0895,"lo2":-89.0444,"dy":0.0017,"dx":0.0017,"nx":28,"ny":28,"refTime":"2025-05-21T21:00:00:Z","depth":0,"parameterNumber":3,"parameterNumberName":"V-component_of_WINDS"},"data":[0,0,0,0,0,0,0,0,0,0,0,0,0,0,0,0,0,0,0,0,0,0,0,0,0,0,0,0,0,0,0,0,0,0,0,0,0,0,0,0,0,0,0,0,0,0,0,0,0,0,0,0,0,0,0,0,0,0,2.0035,2.0035,0,1.9997,1.9997,1.9997,1.9978,1.9978,1.9978,1.9978,1.9939,1.9938,1.9937,0,0,0,0,0,0,0,0,0,0,0,0,0,2.0093,2.0092,2.0035,2.0035,2.0034,1.9997,1.9997,1.9996,1.9978,1.9978,1.9978,1.9979,1.9939,1.9938,1.9937,0,0,0,0,0,0,0,0,0,0,0,0,0,2.0063,2.0091,2.0035,2.0021,2.0019,1.9998,1.9997,1.9996,1.9978,1.9978,1.9978,1.9979,1.994,1.9938,1.9936,1.9926,0,0,1.9932,1.9931,0,0,0,0,0,0,0,0,2.0064,2.006,2.0024,2.0022,2.002,1.9993,2.0003,1.9973,1.9978,1.9994,1.9978,1.9979,1.9957,1.9954,1.9946,1.9924,1.9922,1.9931,1.993,1.993,1.9929,0,0,0,0,0,0,0,2.0066,2.0062,2.002,2.0023,2.0021,2.0017,2.0012,1.9997,1.9976,1.9993,1.9991,1.9987,1.9956,1.9948,1.9945,1.9922,1.9931,1.993,1.9929,1.9928,1.9891,1.9891,0,0,0,0,0,0,2.0071,2.0064,2.0021,2.0019,2.0043,2.0016,2.0011,2.0001,1.9976,1.9972,1.9987,1.9986,1.9951,1.9947,1.9944,1.9931,1.993,1.9928,1.9927,1.9891,1.9891,1.9891,0,0,0,0,0,0,2.0072,2.0067,2.0023,2.0041,2.0035,2.0015,2.0004,2.0001,1.9993,1.9971,1.9968,1.9983,1.9951,1.9946,1.9931,1.9929,1.9928,1.9926,1.9891,1.9891,1.9891,1.9905,0,0,0,0,0,0,2.0074,2.0068,2.0063,2.0041,2.0034,2.001,2.0004,2.0,1.999,1.9989,1.9967,1.9963,1.995,1.9934,1.9929,1.9927,1.9925,1.9891,1.9891,1.9891,1.9904,1.9905,1.9906,0,0,0,0,0,2.0076,2.0068,2.0063,2.0058,2.0028,2.001,2.0006,1.9992,1.999,1.9986,1.9972,1.9964,1.993,1.9932,1.9927,1.9925,1.9891,1.9891,1.9891,1.9904,1.9905,1.9906,0,0,0,0,0,0,2.0089,2.0065,2.0059,2.0043,2.0029,2.0007,2.0001,1.9993,1.9979,1.9978,1.9961,1.9956,1.9943,1.9932,1.9935,1.9914,1.991,1.9909,1.9921,1.9922,1.9923,1.9926,1.9923,0,0,0,0,0,2.0091,2.0078,2.0057,2.0046,2.0039,2.0022,2.0013,2.0004,1.9988,1.9982,1.9967,1.9952,1.9939,1.993,1.9916,1.9903,1.9898,1.9899,1.99,1.99,1.9899,1.9893,1.9894,1.9891,1.9891,1.9891,0,0,2.0093,2.0078,2.0071,2.0048,2.0036,2.0024,2.0016,2.0003,1.9995,1.998,1.9965,1.9954,1.9936,1.9923,1.9916,1.9913,1.99,1.99,1.9901,1.99,1.9893,1.9894,1.9894,1.9891,1.9891,1.9891,0,0,2.009,2.0078,2.0067,2.0056,2.0038,2.0027,2.0025,2.0004,1.9997,1.9982,1.9971,1.996,1.9937,1.9925,1.9916,1.9913,1.9905,1.9909,1.9913,1.9907,1.9907,1.9907,1.9907,1.9907,1.9908,1.9908,1.9908,0,2.0095,2.0076,2.0063,2.0051,2.0042,2.0029,2.0019,2.0009,1.9987,1.9981,1.9979,1.9951,1.9938,1.9922,1.9922,1.9914,1.9912,1.9911,1.9908,1.9908,1.9908,1.9907,1.9907,1.9909,1.9909,1.9909,1.9909,0,2.0084,2.0071,2.0065,2.0046,2.0036,2.0025,2.0011,2.0002,1.9995,1.9984,1.997,1.9955,1.9938,1.9934,1.9925,1.9917,1.9917,1.9911,1.9907,1.9909,1.9908,1.9908,1.991,1.991,1.9909,1.9909,0,0,2.0087,2.0062,2.006,2.0052,2.0033,2.0023,2.0012,1.9997,1.9991,1.9977,1.9968,1.995,1.9946,1.9936,1.9926,1.9921,1.9921,1.9917,1.9916,1.9919,1.9913,1.9917,1.9917,1.9916,1.9916,1.9916,1.9914,0,2.0082,2.0062,2.0051,2.0036,2.0025,2.0015,2.0006,1.9993,1.9984,1.9973,1.9963,1.995,1.9945,1.9939,1.9934,1.9922,1.992,1.9922,1.9908,1.9908,1.9913,1.9916,1.992,1.9919,1.9914,1.9914,1.9914,0,2.0073,2.0061,2.0046,2.003,2.0025,2.0017,2.0003,1.9993,1.998,1.9973,1.9963,1.9954,1.9944,1.9941,1.9926,1.9929,1.9922,1.9916,1.9916,1.9914,1.9911,1.9914,1.9918,1.9918,1.9913,1.9913,1.9913,0,2.0078,2.0058,2.0046,2.004,2.0021,2.0016,2.0007,1.9994,1.9986,1.9974,1.9969,1.9956,1.9949,1.9939,1.9928,1.9927,1.9915,1.9911,1.991,1.991,1.9907,1.9907,1.991,1.9903,1.9903,1.9903,1.9903,0,2.0074,2.0065,2.0049,2.0041,2.0032,2.0019,2.001,2.0001,1.999,1.9981,1.9971,1.9963,1.9948,1.9939,1.993,1.992,1.9917,1.9911,1.9909,1.9912,1.9913,1.9908,1.9908,1.9903,1.9903,1.9903,1.9903,0,2.0077,2.0065,2.0052,2.0036,2.0032,2.0026,2.0012,2.0005,1.9996,1.9986,1.9983,1.9968,1.9957,1.9945,1.9929,1.9923,1.9914,1.991,1.9918,1.9917,1.9917,1.9917,1.9916,1.9916,1.9909,1.9909,1.9909,0,2.0074,2.0068,2.0052,2.0046,2.0038,2.0028,2.0021,2.0009,2.0002,1.9988,1.9983,1.9971,1.9961,1.9944,1.9932,1.9921,1.9917,1.9918,1.9915,1.9919,1.9918,1.9918,1.9918,1.9918,1.9918,1.9918,1.9918,0,2.0072,2.0068,2.0058,2.0047,2.0039,2.0029,2.0019,2.0015,2.0001,1.9994,1.9983,1.9975,1.996,1.9949,1.9937,1.9928,1.9922,1.992,1.9919,1.9922,1.9927,1.9925,1.9921,1.9919,1.9919,1.9919,1.9919,1.9919,2.0073,2.0067,2.0056,2.0045,2.0037,2.0029,2.0022,2.0013,2.0004,1.9991,1.9985,1.9975,1.9963,1.9946,1.9938,1.993,1.9928,1.9926,1.9926,1.9926,1.9927,1.9929,1.9928,1.9928,1.9928,1.9928,1.9928,0,2.0071,2.0063,2.0054,2.0042,2.0034,2.0029,2.0019,2.0013,2.0004,1.9994,1.9985,1.9973,1.9963,1.9952,1.9941,1.9937,1.9934,1.9934,1.9935,1.9933,1.993,1.9932,1.9937,1.9937,1.9937,1.9937,1.9937,1.9937,2.0069,2.0059,2.0054,2.0041,2.0033,2.0024,2.0018,2.0011,2.0003,1.9991,1.9983,1.9976,1.9966,1.9954,1.9945,1.9942,1.9939,1.9941,1.9937,1.9934,1.9933,1.9932,1.9934,1.994,1.994,1.9941,1.9941,1.9941]}]]